| time (UTC) | temp F | wind direction | speed MPH | gust MPH | rain 1hr in | rain 24hr in | rain mn in | humidity % | barometer mb |
| 20260902173352 | 68 | 166 | 0.0 | 6.0 | 0.00 | 0.02 | 0.00 | 80 | 1022.6 |
| 20260902173325 | 68 | 153 | 7.0 | 11.0 | 0.00 | 0.01 | 0.00 | 83 | 1021.2 |
| 20260902171925 | 68 | 142 | 2.0 | 6.0 | 0.00 | 0.02 | 0.00 | 78 | 1022.7 |
| 20260902171907 | 68 | 128 | 8.0 | 10.0 | 0.00 | 0.02 | 0.00 | 83 | 1021.3 |
| 20260902171825 | 68 | 128 | 8.0 | 10.0 | 0.00 | 0.02 | 0.00 | 83 | 1021.3 |
| 20260902170328 | 68 | 126 | 3.0 | 6.0 | 0.00 | 0.02 | 0.00 | 79 | 1022.8 |
| 20260902170324 | 67 | 147 | 7.0 | 8.0 | 0.00 | 0.02 | 0.00 | 85 | 1021.3 |
| 20260902164939 | 67 | 128 | 2.0 | 4.0 | 0.00 | 0.05 | 0.00 | 80 | 1023.1 |
| 20260902164844 | 67 | 142 | 6.0 | 10.0 | 0.00 | 0.02 | 0.00 | 85 | 1021.6 |
| 20260902163403 | 67 | 212 | 2.0 | 8.0 | 0.00 | 0.05 | 0.00 | 81 | 1023.1 |
| 20260902163347 | 67 | 145 | 12.0 | 13.0 | 0.00 | 0.02 | 0.00 | 85 | 1021.5 |
| 20260902161843 | 67 | 136 | 9.0 | 14.0 | 0.00 | 0.07 | 0.00 | 87 | 1021.7 |
| 20260902161827 | 67 | 185 | 0.0 | 3.0 | 0.00 | 0.05 | 0.00 | 81 | 1023.0 |
| 20260902160351 | 66 | 146 | 9.0 | 11.0 | 0.00 | 0.07 | 0.00 | 85 | 1021.7 |
| 20260902160327 | 67 | 220 | 1.0 | 3.0 | 0.00 | 0.05 | 0.00 | 83 | 1023.1 |
| 20260902154831 | 66 | 287 | 0.0 | 1.0 | 0.00 | 0.10 | 0.00 | 84 | 1023.5 |
| 20260902154827 | 66 | 133 | 8.0 | 11.0 | 0.00 | 0.07 | 0.00 | 87 | 1021.9 |
| 20260902153406 | 66 | 287 | 0.0 | 3.0 | 0.00 | 0.10 | 0.00 | 84 | 1023.6 |
| 20260902153348 | 66 | 157 | 6.0 | 9.0 | 0.00 | 0.07 | 0.00 | 87 | 1022.2 |
| 20260902151827 | 66 | 146 | 1.0 | 8.0 | 0.00 | 0.07 | 0.00 | 87 | 1022.3 |
| 20260902150337 | 66 | 270 | 1.0 | 3.0 | 0.00 | 0.10 | 0.00 | 83 | 1023.9 |
| 20260902150332 | 66 | 157 | 5.0 | 9.0 | 0.00 | 0.07 | 0.00 | 87 | 1022.6 |
| 20260902144848 | 65 | 168 | 4.0 | 11.0 | 0.00 | 0.07 | 0.00 | 87 | 1022.5 |
| 20260902144842 | 66 | 134 | 1.0 | 3.0 | 0.00 | 0.10 | 0.00 | 82 | 1023.9 |
| 20260902143435 | 65 | 210 | 3.0 | 8.0 | 0.00 | 0.10 | 0.00 | 83 | 1023.7 |
| 20260902143351 | 65 | 102 | 3.0 | 6.0 | 0.00 | 0.07 | 0.00 | 87 | 1022.4 |
| 20260902141852 | 65 | 200 | 3.0 | 5.0 | 0.00 | 0.10 | 0.00 | 83 | 1023.6 |
| 20260902141844 | 65 | 138 | 3.0 | 9.0 | 0.00 | 0.07 | 0.00 | 88 | 1022.3 |
| 20260902140413 | 65 | 132 | 5.0 | 8.0 | 0.00 | 0.07 | 0.00 | 88 | 1022.2 |
| 20260902140331 | 65 | 182 | 1.0 | 5.0 | 0.00 | 0.10 | 0.00 | 84 | 1023.5 |
| 20260902134942 | 64 | 114 | 2.0 | 4.0 | 0.00 | 0.10 | 0.00 | 84 | 1023.5 |
| 20260902134909 | 65 | 108 | 1.0 | 6.0 | 0.00 | 0.07 | 0.00 | 89 | 1022.2 |
| 20260902133357 | 64 | 137 | 2.0 | 6.0 | 0.00 | 0.07 | 0.00 | 89 | 1022.0 |
| 20260902133328 | 64 | 154 | 1.0 | 3.0 | 0.00 | 0.10 | 0.00 | 85 | 1023.4 |
| 20260902131859 | 64 | 146 | 1.0 | 6.0 | 0.00 | 0.08 | 0.00 | 89 | 1021.5 |
| 20260902131828 | 64 | 195 | 0.0 | 3.0 | 0.00 | 0.10 | 0.00 | 85 | 1023.0 |
| 20260902130350 | 64 | 228 | 0.0 | 1.0 | 0.00 | 0.10 | 0.00 | 87 | 1023.1 |
| 20260902130340 | 63 | 138 | 3.0 | 8.0 | 0.00 | 0.08 | 0.00 | 89 | 1021.6 |
| 20260902124837 | 63 | 200 | 1.0 | 2.0 | 0.00 | 0.11 | 0.00 | 88 | 1023.1 |
| 20260902124813 | 63 | 160 | 3.0 | 7.0 | 0.00 | 0.08 | 0.00 | 92 | 1021.7 |
| 20260902123350 | 62 | 139 | 3.0 | 6.0 | 0.00 | 0.08 | 0.00 | 94 | 1021.8 |
| 20260902123341 | 62 | 255 | 1.0 | 2.0 | 0.00 | 0.11 | 0.00 | 89 | 1023.1 |
| 20260902121929 | 61 | 126 | 1.0 | 3.0 | 0.00 | 0.13 | 0.00 | 97 | 1021.7 |
| 20260902121845 | 62 | 260 | 1.0 | 2.0 | 0.00 | 0.11 | 0.00 | 89 | 1023.2 |
| 20260902120358 | 61 | 207 | 0.0 | 1.0 | 0.00 | 0.11 | 0.00 | 89 | 1023.2 |
| 20260902120315 | 61 | 250 | 0.0 | 1.0 | 0.00 | 0.13 | 0.00 | 98 | 1021.8 |
| 20260902114940 | 61 | 250 | 0.0 | 1.0 | 0.00 | 0.13 | 0.00 | 98 | 1021.8 |
| 20260902114842 | 61 | 107 | 0.0 | 0.0 | 0.00 | 0.20 | 0.00 | 90 | 1023.3 |
| 20260902113404 | 61 | 250 | 1.0 | 1.0 | 0.00 | 0.13 | 0.00 | 98 | 1021.9 |
| 20260902113351 | 61 | 107 | 0.0 | 0.0 | 0.00 | 0.20 | 0.00 | 90 | 1023.4 |
| 20260902111853 | 61 | 107 | 0.0 | 0.0 | 0.00 | 0.20 | 0.00 | 90 | 1023.5 |
| 20260902111845 | 61 | 250 | 1.0 | 2.0 | 0.00 | 0.25 | 0.00 | 98 | 1022.2 |
| 20260902110352 | 60 | 250 | 0.0 | 1.0 | 0.00 | 0.25 | 0.00 | 98 | 1022.1 |
| 20260902110336 | 61 | 107 | 0.0 | 0.0 | 0.00 | 0.20 | 0.00 | 90 | 1023.4 |
| 20260902104919 | 60 | 246 | 0.0 | 1.0 | 0.00 | 0.25 | 0.00 | 98 | 1021.9 |
| 20260902104907 | 61 | 107 | 0.0 | 0.0 | 0.00 | 0.27 | 0.00 | 90 | 1023.3 |
| 20260902104816 | 60 | 246 | 0.0 | 1.0 | 0.00 | 0.25 | 0.00 | 98 | 1021.9 |
| 20260902103415 | 60 | 107 | 0.0 | 0.0 | 0.00 | 0.27 | 0.00 | 90 | 1023.1 |
| 20260902103400 | 60 | 246 | 0.0 | 1.0 | 0.00 | 0.25 | 0.00 | 98 | 1021.7 |
| 20260902101921 | 60 | 107 | 0.0 | 0.0 | 0.00 | 0.27 | 0.00 | 90 | 1022.9 |
| 20260902101907 | 60 | 246 | 1.0 | 2.0 | 0.00 | 0.25 | 0.00 | 97 | 1021.6 |
| 20260902100337 | 61 | 107 | 0.0 | 0.0 | 0.00 | 0.27 | 0.00 | 90 | 1022.6 |
| 20260902100326 | 60 | 244 | 0.0 | 1.0 | 0.00 | 0.25 | 0.00 | 97 | 1021.3 |
| 20260902094907 | 60 | 244 | 0.0 | 2.0 | 0.00 | 0.25 | 0.00 | 97 | 1021.3 |
| 20260902094824 | 61 | 107 | 0.0 | 0.0 | 0.00 | 0.27 | 0.00 | 90 | 1022.5 |
| 20260902093414 | 61 | 107 | 0.0 | 0.0 | 0.00 | 0.27 | 0.00 | 90 | 1022.5 |
| 20260902093328 | 60 | 244 | 0.0 | 1.0 | 0.00 | 0.25 | 0.00 | 98 | 1021.2 |
| 20260902091910 | 61 | 107 | 0.0 | 0.0 | 0.00 | 0.27 | 0.00 | 90 | 1022.3 |
| 20260902091907 | 60 | 244 | 1.0 | 1.0 | 0.00 | 0.25 | 0.00 | 97 | 1021.3 |
| 20260902090354 | 60 | 244 | 0.0 | 2.0 | 0.00 | 0.25 | 0.00 | 97 | 1021.0 |
| 20260902090349 | 60 | 107 | 0.0 | 0.0 | 0.00 | 0.27 | 0.00 | 89 | 1022.2 |
| 20260902084855 | 61 | 159 | 1.0 | 2.0 | 0.00 | 0.25 | 0.00 | 97 | 1020.8 |
| 20260902084835 | 60 | 107 | 0.0 | 0.0 | 0.00 | 0.27 | 0.00 | 89 | 1022.2 |
| 20260902083408 | 60 | 107 | 0.0 | 0.0 | 0.00 | 0.27 | 0.00 | 89 | 1022.1 |
| 20260902083315 | 61 | 153 | 0.0 | 1.0 | 0.00 | 0.25 | 0.00 | 97 | 1020.9 |
| 20260902081836 | 61 | 129 | 3.0 | 6.0 | 0.00 | 0.25 | 0.00 | 98 | 1020.8 |
| 20260902081825 | 60 | 107 | 0.0 | 0.0 | 0.00 | 0.27 | 0.00 | 89 | 1022.2 |
| 20260902080414 | 60 | 99 | 0.0 | 2.0 | 0.00 | 0.27 | 0.00 | 89 | 1022.2 |
| 20260902080348 | 60 | 239 | 0.0 | 1.0 | 0.00 | 0.25 | 0.00 | 97 | 1020.9 |
| 20260902074924 | 60 | 83 | 0.0 | 0.0 | 0.00 | 0.27 | 0.00 | 89 | 1022.3 |
| 20260902074848 | 60 | 239 | 0.0 | 2.0 | 0.00 | 0.25 | 0.00 | 97 | 1021.1 |
| 20260902073353 | 61 | 83 | 0.0 | 0.0 | 0.00 | 0.27 | 0.00 | 89 | 1022.2 |
| 20260902073330 | 60 | 239 | 0.0 | 2.0 | 0.00 | 0.25 | 0.00 | 97 | 1021.0 |
| 20260902071853 | 61 | 327 | 0.0 | 1.0 | 0.00 | 0.25 | 0.00 | 97 | 1020.9 |
| 20260902071835 | 61 | 83 | 0.0 | 0.0 | 0.00 | 0.27 | 0.00 | 89 | 1022.2 |
| 20260902070338 | 61 | 83 | 0.0 | 0.0 | 0.00 | 0.27 | 0.00 | 89 | 1022.3 |
| 20260902070336 | 61 | 327 | 0.0 | 1.0 | 0.00 | 0.25 | 0.00 | 97 | 1021.1 |
| 20260902064934 | 61 | 83 | 0.0 | 1.0 | 0.00 | 0.27 | 0.00 | 89 | 1022.6 |
| 20260902064858 | 61 | 327 | 1.0 | 2.0 | 0.00 | 0.25 | 0.00 | 97 | 1021.4 |
| 20260902063341 | 61 | 327 | 1.0 | 2.0 | 0.00 | 0.25 | 0.00 | 97 | 1021.2 |
| 20260902063338 | 61 | 83 | 0.0 | 1.0 | 0.00 | 0.27 | 0.00 | 89 | 1022.4 |
| 20260902061843 | 61 | 83 | 1.0 | 2.0 | 0.00 | 0.27 | 0.00 | 89 | 1022.3 |
| 20260902061820 | 61 | 41 | 1.0 | 6.0 | 0.00 | 0.25 | 0.00 | 97 | 1020.9 |
| 20260902060342 | 61 | 83 | 0.0 | 2.0 | 0.00 | 0.27 | 0.00 | 89 | 1022.3 |
| 20260902060332 | 61 | 105 | 0.0 | 1.0 | 0.00 | 0.25 | 0.00 | 97 | 1021.0 |
| 20260902054850 | 61 | 119 | 0.0 | 2.0 | 0.00 | 0.25 | 0.00 | 97 | 1020.7 |
| 20260902054829 | 61 | 93 | 1.0 | 2.0 | 0.00 | 0.27 | 0.00 | 89 | 1022.1 |
| 20260902053338 | 61 | 79 | 1.0 | 2.0 | 0.00 | 0.27 | 0.00 | 89 | 1022.0 |
| 20260902053334 | 61 | 12 | 0.0 | 1.0 | 0.00 | 0.25 | 0.00 | 97 | 1020.6 |
| 20260902051912 | 61 | 11 | 0.0 | 1.0 | 0.00 | 0.25 | 0.00 | 97 | 1020.6 |
| 20260902051859 | 61 | 104 | 1.0 | 2.0 | 0.00 | 0.27 | 0.00 | 89 | 1022.0 |
| 20260902050356 | 61 | 11 | 0.0 | 0.0 | 0.00 | 0.25 | 0.00 | 97 | 1020.5 |
| 20260902050342 | 61 | 104 | 2.0 | 3.0 | 0.00 | 0.27 | 0.00 | 89 | 1021.8 |
| 20260902044828 | 61 | 105 | 0.0 | 0.0 | 0.00 | 0.27 | 0.00 | 89 | 1021.7 |
| 20260902044812 | 61 | 11 | 1.0 | 1.0 | 0.00 | 0.25 | 0.00 | 97 | 1020.4 |
| 20260902043427 | 61 | 105 | 0.0 | 0.0 | 0.00 | 0.27 | 0.00 | 89 | 1021.5 |
| 20260902043338 | 61 | 11 | 0.0 | 1.0 | 0.00 | 0.25 | 0.00 | 97 | 1020.1 |
| 20260902041850 | 61 | 105 | 0.0 | 0.0 | 0.00 | 0.27 | 0.00 | 89 | 1021.5 |
| 20260902041834 | 61 | 11 | 1.0 | 1.0 | 0.00 | 0.25 | 0.25 | 97 | 1019.9 |
| 20260902040421 | 61 | 105 | 1.0 | 2.0 | 0.00 | 0.27 | 0.00 | 89 | 1021.1 |
| 20260902040334 | 61 | 11 | 0.0 | 1.0 | 0.00 | 0.25 | 0.25 | 97 | 1019.7 |
| 20260902034939 | 61 | 11 | 1.0 | 2.0 | 0.00 | 0.25 | 0.25 | 96 | 1019.5 |
| 20260902034841 | 61 | 105 | 0.0 | 0.0 | 0.00 | 0.27 | 0.27 | 89 | 1020.8 |
| 20260902033351 | 61 | 105 | 0.0 | 2.0 | 0.00 | 0.27 | 0.27 | 89 | 1020.9 |
| 20260902033341 | 62 | 11 | 0.0 | 0.0 | 0.00 | 0.25 | 0.25 | 96 | 1019.4 |
| 20260902031858 | 61 | 123 | 0.0 | 0.0 | 0.00 | 0.27 | 0.27 | 89 | 1020.8 |
| 20260902031818 | 62 | 11 | 0.0 | 1.0 | 0.00 | 0.25 | 0.25 | 95 | 1019.4 |
| 20260902030359 | 61 | 123 | 0.0 | 0.0 | 0.00 | 0.27 | 0.27 | 89 | 1020.9 |
| 20260902030354 | 62 | 108 | 0.0 | 2.0 | 0.00 | 0.25 | 0.25 | 95 | 1019.4 |
| 20260902024913 | 61 | 123 | 0.0 | 1.0 | 0.00 | 0.27 | 0.27 | 89 | 1020.9 |
| 20260902024829 | 62 | 267 | 0.0 | 1.0 | 0.00 | 0.25 | 0.25 | 94 | 1019.4 |
| 20260902023446 | 61 | 135 | 0.0 | 3.0 | 0.00 | 0.27 | 0.27 | 89 | 1020.9 |
| 20260902023403 | 63 | 133 | 1.0 | 7.0 | 0.00 | 0.25 | 0.25 | 93 | 1019.5 |
| 20260902021934 | 62 | 135 | 0.0 | 3.0 | 0.00 | 0.27 | 0.27 | 89 | 1020.9 |
| 20260902021816 | 63 | 127 | 4.0 | 9.0 | 0.00 | 0.25 | 0.25 | 93 | 1019.4 |
| 20260902020333 | 62 | 107 | 1.0 | 3.0 | 0.00 | 0.27 | 0.27 | 89 | 1021.0 |
| 20260902020321 | 63 | 110 | 4.0 | 10.0 | 0.00 | 0.25 | 0.25 | 93 | 1019.6 |
| 20260902014955 | 62 | 135 | 0.0 | 0.0 | 0.00 | 0.27 | 0.27 | 89 | 1020.9 |
| 20260902014823 | 63 | 150 | 5.0 | 9.0 | 0.00 | 0.25 | 0.25 | 92 | 1019.5 |
| 20260902013414 | 64 | 155 | 7.0 | 9.0 | 0.00 | 0.25 | 0.25 | 92 | 1019.4 |
| 20260902013358 | 62 | 135 | 1.0 | 2.0 | 0.00 | 0.27 | 0.27 | 89 | 1020.9 |
| 20260902011844 | 62 | 64 | 1.0 | 3.0 | 0.00 | 0.27 | 0.27 | 89 | 1020.9 |
| 20260902011824 | 64 | 128 | 4.0 | 9.0 | 0.00 | 0.25 | 0.25 | 92 | 1019.5 |
| 20260902010353 | 64 | 150 | 8.0 | 12.0 | 0.00 | 0.25 | 0.25 | 93 | 1019.4 |
| 20260902010346 | 62 | 289 | 0.0 | 0.0 | 0.00 | 0.27 | 0.27 | 89 | 1020.7 |
| 20260902004847 | 62 | 51 | 0.0 | 2.0 | 0.00 | 0.27 | 0.27 | 89 | 1020.6 |
| 20260902004825 | 64 | 149 | 8.0 | 10.0 | 0.00 | 0.25 | 0.25 | 93 | 1019.0 |
| 20260902003433 | 64 | 139 | 6.0 | 9.0 | 0.00 | 0.25 | 0.25 | 93 | 1018.9 |
| 20260902003358 | 62 | 142 | 1.0 | 3.0 | 0.00 | 0.27 | 0.27 | 89 | 1020.2 |
| 20260902001838 | 62 | 106 | 2.0 | 3.0 | 0.00 | 0.27 | 0.27 | 89 | 1019.9 |
| 20260902001829 | 64 | 150 | 8.0 | 11.0 | 0.00 | 0.25 | 0.25 | 94 | 1018.7 |
| 20260902000431 | 63 | 239 | 0.0 | 2.0 | 0.00 | 0.27 | 0.27 | 89 | 1019.8 |
| 20260902000313 | 64 | 155 | 9.0 | 12.0 | 0.00 | 0.25 | 0.25 | 93 | 1018.7 |
| 20260901234850 | 63 | 239 | 0.0 | 2.0 | 0.00 | 0.27 | 0.27 | 89 | 1019.7 |
| 20260901234811 | 64 | 122 | 8.0 | 12.0 | 0.00 | 0.25 | 0.25 | 93 | 1018.4 |
| 20260901233404 | 63 | 60 | 0.0 | 4.0 | 0.00 | 0.27 | 0.27 | 89 | 1019.6 |
| 20260901233319 | 64 | 121 | 7.0 | 9.0 | 0.00 | 0.25 | 0.25 | 95 | 1018.5 |
| 20260901231838 | 64 | 148 | 7.0 | 14.0 | 0.00 | 0.25 | 0.25 | 95 | 1018.6 |
| 20260901231825 | 63 | 166 | 1.0 | 2.0 | 0.00 | 0.27 | 0.27 | 89 | 1019.8 |
| 20260901230409 | 65 | 131 | 6.0 | 8.0 | 0.00 | 0.25 | 0.25 | 96 | 1018.4 |
| 20260901230355 | 64 | 172 | 0.0 | 6.0 | 0.00 | 0.27 | 0.27 | 89 | 1019.7 |
| 20260901224931 | 64 | 355 | 0.0 | 0.0 | 0.00 | 0.27 | 0.27 | 90 | 1019.8 |
| 20260901224830 | 65 | 101 | 0.0 | 1.0 | 0.00 | 0.25 | 0.25 | 96 | 1018.5 |
| 20260901223433 | 64 | 355 | 0.0 | 0.0 | 0.00 | 0.27 | 0.27 | 90 | 1019.7 |
| 20260901223329 | 65 | 60 | 0.0 | 1.0 | 0.00 | 0.25 | 0.25 | 95 | 1018.3 |
| 20260901221920 | 64 | 355 | 0.0 | 1.0 | 0.00 | 0.27 | 0.27 | 89 | 1019.7 |
| 20260901221905 | 65 | 93 | 0.0 | 1.0 | 0.00 | 0.25 | 0.25 | 95 | 1018.2 |
| 20260901220407 | 64 | 355 | 0.0 | 3.0 | 0.00 | 0.27 | 0.27 | 89 | 1019.5 |
| 20260901220329 | 65 | 63 | 1.0 | 2.0 | 0.00 | 0.25 | 0.25 | 95 | 1018.0 |
| 20260901214928 | 65 | 20 | 0.0 | 1.0 | 0.00 | 0.27 | 0.27 | 89 | 1019.4 |
| 20260901214911 | 65 | 111 | 2.0 | 4.0 | 0.00 | 0.25 | 0.25 | 95 | 1017.9 |
| 20260901214829 | 65 | 111 | 2.0 | 4.0 | 0.00 | 0.25 | 0.25 | 95 | 1017.9 |
| 20260901213400 | 65 | 70 | 1.0 | 3.0 | 0.00 | 0.27 | 0.27 | 89 | 1019.3 |
| 20260901213313 | 65 | 107 | 2.0 | 4.0 | 0.00 | 0.25 | 0.25 | 95 | 1017.9 |
| 20260901211849 | 65 | 340 | 1.0 | 2.0 | 0.00 | 0.27 | 0.27 | 89 | 1019.2 |
| 20260901211819 | 65 | 134 | 3.0 | 6.0 | 0.00 | 0.25 | 0.25 | 95 | 1017.9 |
| 20260901210354 | 65 | 112 | 1.0 | 3.0 | 0.00 | 0.27 | 0.27 | 89 | 1019.1 |
| 20260901210324 | 65 | 61 | 0.0 | 3.0 | 0.00 | 0.25 | 0.25 | 95 | 1017.7 |
| 20260901204933 | 65 | 128 | 1.0 | 4.0 | 0.00 | 0.25 | 0.25 | 95 | 1017.6 |
| 20260901204919 | 65 | 131 | 0.0 | 3.0 | 0.00 | 0.27 | 0.27 | 89 | 1019.1 |
| 20260901203436 | 65 | 265 | 0.0 | 2.0 | 0.00 | 0.27 | 0.27 | 89 | 1019.2 |
| 20260901203332 | 65 | 265 | 0.0 | 2.0 | 0.00 | 0.27 | 0.27 | 89 | 1019.2 |
| 20260901203324 | 65 | 120 | 2.0 | 4.0 | 0.00 | 0.25 | 0.25 | 96 | 1017.6 |
| 20260901201912 | 65 | 113 | 3.0 | 6.0 | 0.00 | 0.25 | 0.25 | 96 | 1017.5 |
| 20260901201836 | 65 | 340 | 1.0 | 2.0 | 0.00 | 0.27 | 0.27 | 89 | 1018.9 |
| 20260901200341 | 65 | 20 | 0.0 | 0.0 | 0.00 | 0.27 | 0.27 | 89 | 1018.7 |
| 20260901200337 | 65 | 127 | 2.0 | 4.0 | 0.00 | 0.25 | 0.25 | 96 | 1017.3 |
| 20260901194931 | 65 | 302 | 1.0 | 2.0 | 0.00 | 0.27 | 0.27 | 90 | 1018.9 |
| 20260901194844 | 65 | 70 | 2.0 | 4.0 | 0.00 | 0.25 | 0.25 | 97 | 1017.3 |
| 20260901193422 | 65 | 16 | 1.0 | 4.0 | 0.00 | 0.27 | 0.27 | 89 | 1018.8 |
| 20260901193326 | 65 | 76 | 1.0 | 2.0 | 0.00 | 0.25 | 0.25 | 97 | 1017.3 |
| 20260901191902 | 65 | 298 | 3.0 | 5.0 | 0.00 | 0.27 | 0.27 | 90 | 1018.8 |
| 20260901191811 | 64 | 115 | 2.0 | 6.0 | 0.01 | 0.25 | 0.25 | 98 | 1017.4 |
| 20260901190350 | 65 | 68 | 1.0 | 3.0 | 0.01 | 0.27 | 0.27 | 90 | 1018.8 |
| 20260901190338 | 64 | 117 | 3.0 | 4.0 | 0.01 | 0.25 | 0.25 | 98 | 1017.4 |
| 20260901184906 | 64 | 67 | 1.0 | 3.0 | 0.01 | 0.25 | 0.25 | 98 | 1017.5 |
| 20260901184855 | 65 | 56 | 2.0 | 3.0 | 0.01 | 0.27 | 0.27 | 90 | 1018.9 |
| 20260901184824 | 64 | 67 | 1.0 | 3.0 | 0.01 | 0.25 | 0.25 | 98 | 1017.5 |
| 20260901183409 | 65 | 280 | 0.0 | 2.0 | 0.01 | 0.27 | 0.27 | 90 | 1019.0 |
| 20260901183352 | 64 | 67 | 3.0 | 6.0 | 0.01 | 0.25 | 0.25 | 98 | 1017.5 |
| 20260901181850 | 64 | 278 | 0.0 | 3.0 | 0.01 | 0.27 | 0.27 | 90 | 1019.0 |
| 20260901181814 | 64 | 59 | 1.0 | 6.0 | 0.00 | 0.24 | 0.24 | 98 | 1017.5 |
| 20260901180421 | 64 | 279 | 1.0 | 3.0 | 0.01 | 0.26 | 0.26 | 90 | 1018.9 |
| 20260901180339 | 63 | 9 | 0.0 | 2.0 | 0.01 | 0.24 | 0.24 | 98 | 1017.5 |
| 20260901174922 | 63 | 313 | 1.0 | 2.0 | 0.01 | 0.24 | 0.24 | 98 | 1017.3 |
| 20260901174843 | 64 | 306 | 2.0 | 4.0 | 0.01 | 0.26 | 0.26 | 90 | 1018.8 |